Regional Weather Roundup
Issued by NWS Upton, NY

Current Version | Previous Version | Graphics & Text | Print | Product List | Glossary Off
Versions: 1 2 3 4 5 6 7 8 9 10 11 12 13 14 15 16 17 18 19 20 21 22 23 24 25 26 27

000
ASUS41 KOKX 280204
RWROKX

REGIONAL WEATHER ROUNDUP
NATIONAL WEATHER SERVICE NEW YORK NY
1000 PM EDT FRI MAY 27 2016

NOTE: "FAIR" INDICATES FEW OR NO CLOUDS BELOW 12,000 FEET WITH NO
SIGNIFICANT WEATHER AND/OR OBSTRUCTIONS TO VISIBILITY.

NYZ071-072-176-178-NJZ106-104-280300-
NEW YORK CITY METRO AREA


CITY           SKY/WX    TMP DP  RH WIND       PRES   REMARKS
CENTRAL PARK   CLEAR     78  63  59 VRB6      30.07R
LAGUARDIA APRT MOCLDY    74  66  76 S12       30.04R
KENNEDY INTL   MOCLDY    68  59  73 S15       30.07R
NEWARK/LIBERTY MOCLDY    80  66  62 S13G18    30.04R
BRNX BOT. GARD   N/A     72  61  68 SE6       30.05S
TETERBORO      PTCLDY    79  63  57 S5        30.03R
$$

NYZ177-179-078>081-280300-
LONG ISLAND NEW YORK

CITY           SKY/WX    TMP DP  RH WIND       PRES   REMARKS
FARMINGDALE    CLEAR     68  57  68 SW14G22   30.08R
ISLIP          PTCLDY    68  56  65 SW16G24   30.08R
SHIRLEY        PTCLDY    68  56  65 SW13G22   30.10R
RIVERHEAD        N/A     68  57  68 W3        30.08R
WESTHAMPTON    CLEAR     65  55  70 SW12      30.11R
EAST HAMPTON   FAIR      63  55  74 SW8       30.10R
MONTAUK POINT    N/A     62  56  80 SW7       30.11R
$$

NYZ052-065-067-280300-
HUDSON VALLEY

CITY           SKY/WX    TMP DP  RH WIND       PRES   REMARKS
WHITE PLAINS   CLEAR     69  62  78 S5        30.05R
NEWBURGH       MOCLDY    72  68  88 W7        30.05R
MONTGOMERY     CLOUDY    71  69  93 N7        30.03R
POUGHKEEPSIE   CLOUDY    75  67  76 CALM      30.02R
ALBANY         CLOUDY    77  67  71 S6        30.00R THUNDER
$$

NJZ001-105-106-008-010-013-015-019>022-104-280300-
NEW JERSEY

CITY           SKY/WX    TMP DP  RH WIND       PRES   REMARKS
NEWARK/LIBERTY MOCLDY    80  66  62 S13G18    30.04R
TETERBORO      PTCLDY    79  63  57 S5        30.03R
CALDWELL       PTCLDY    79  67  66 CALM      30.03R
MORRISTOWN     MOCLDY    81  66  61 SW6       30.04R
SOMERVILLE     PTCLDY    73  67  81 CALM      30.03R
SUSSEX         MOCLDY    74  68  81 CALM      30.05R
ANDOVER          N/A     74  68  81 CALM      30.06R
TRENTON        CLEAR     78  66  66 S8        30.06R
MILLVILLE      PTCLDY    73  58  59 S6        30.11R
ATLANTIC CITY  CLEAR     73  54  51 S10       30.11R
WRIGHTSTOWN    CLEAR     73  64  71 S7        30.06R
TOMS RIVER     PTCLDY    72  54  53 S9G16     30.10R
BELMAR         CLEAR     73  59  61 S9        30.10R
$$

PAZ047>061-062-071-280300-
EASTERN PENNSYLVANIA

CITY           SKY/WX    TMP DP  RH WIND       PRES   REMARKS
PHILADELPHIA   MOCLDY    78  65  63 S8        30.09R
ALLENTOWN      CLEAR     81  67  62 SW10      30.05R
SCRANTON       CLOUDY    75  65  70 CALM      30.06R
$$

CTZ002-004>006-009-010-012-RIZ004-006-007-MAZ004-011-015-280300-
SOUTHERN NEW ENGLAND
 IN CT

CITY           SKY/WX    TMP DP  RH WIND       PRES   REMARKS
BRADLEY INTL   PTCLDY    74  62  66 S9        30.03R
HARTFORD       CLEAR     74  62  66 S10       30.05R
DANBURY        CLEAR     67  65  93 CALM      30.06R
WTRBRY/OXFORD    N/A     66  61  82 S6        30.08S
BRIDGEPORT     CLEAR     70  60  70 S3        30.06R
MERIDEN        CLEAR     71  61  70 S7        30.06R
NEW HAVEN      CLEAR     67  60  78 S5        30.07R
CHESTER        FAIR      66  61  82 S7        30.09R
GROTON         CLEAR     64  59  83 SW10      30.09R
WILLIMANTIC    CLEAR     71  60  68 S8        30.07R

 IN RI

CITY           SKY/WX    TMP DP  RH WIND       PRES   REMARKS
PROVIDENCE     MOCLDY    69  59  70 SW12      30.08R
BLOCK ISLAND   CLEAR     60  55  83 SW10      30.12R
WESTERLY       CLEAR     62  55  77 S5        30.11R

 IN MA

CITY           SKY/WX    TMP DP  RH WIND       PRES   REMARKS
BOSTON         PTCLDY    69  61  75 S7        30.04R
WORCESTER      CLEAR     72  61  68 SW12      30.07R
WESTFIELD      PTCLDY    70  65  84 S6        30.03R
PROVINCETOWN   CLOUDY    61  57  87 S14       30.07R
NANTUCKET      CLEAR     59  56  89 SW9       30.12R
$$

ANZ330-335-338-340-345-350-353-355-280300-
COASTAL MARINE OBSERVATIONS


STATION/POSITION TIME  SKY/WX   TEMP    WIND        PRES    VSBY  WAVE
                                AIR SEA DIR/SP/G                  HT/PER
                 (UTC)          (F)     (DEG/KT/KT) (MB)    (MI)  (FT/S)
NY HARB ENTRANCE 0050            64 59  200/ 21/ 25 1016.5          5/ 6
20S FIRE ISLAND  0050            62 60  200/ 17/ 19 1017.8          4/ 5
GREAT SOUTH BAY  NOT AVBL
23 SSW MONTAUK P 0150            62 57  220/ 17/ 19 1018.5          4/ 5
15 E BARNEGAT LI 0122               60                N/A           4/ 5
HUDSON CANYON    0050            61 57              1019.8          3/ 6
KINGS POINT      0100                               1016.7
EXECUTION ROCKS  NOT AVBL
CENTRAL LI SOUND 0100            67     230/  6/ 10   N/A           1/ 2
EASTERN LI SOUND 0100            61 54   60/  2/  4   N/A
ROBBINS REEF     0100                   180/ 16/ 17 1015.9
$$


>>>>>>>>>>>>>>>>>>>>>>>>>>>> KEY <<<<<<<<<<<<<<<<<<<<<<<<<<<
>                                                          <
>     SKY/WX - SKY CONDITION/PRESENT WEATHER               <
>     TMP    - TEMPERATURE IN FAHRENHEIT                   <
>     DP     - DEWPOINT IN FAHRENHEIT                      <
>     RH     - RELATIVE HUMIDITY IN PERCENT                <
>     WIND   - DIRECTION AND SPEED IN MPH                  <
>     PRES   - MEAN SEA LEVEL PRESSURE IN INCHES OF HG     <
>     WCI    - WIND CHILL INDEX                            <
>     VSB    - VISIBILITY IN MILES                         <
>     HX     - HEAT INDEX                                  <
>     TC     - TEMPERATURE IN CELSIUS                      <
>     VRB    - VARIABLE WIND DIRECTION                     <
>                                                          <
>>>>>>>>>>>>>>>>>>>>>>>>>>>> KEY <<<<<<<<<<<<<<<<<<<<<<<<<<<






USA.gov is the U.S. government's official web portal to all federal, state and local government web resources and services.